| time (UTC) | temp C | wind direction | speed KPH | gust KPH | rain 1hr cm | rain 24hr cm | rain mn cm | humidity % | barometer mb |
| 20260502161702 | 15 | 154 | 0.0 | 3.2 | 0.00 | 0.00 | 0.00 | 46 | 1023.0 |
| 20260502161158 | 15 | 79 | 1.6 | 3.2 | 0.00 | 0.00 | 0.00 | 43 | 1023.1 |
| 20260502160656 | 15 | 16 | 1.6 | 6.4 | 0.00 | 0.00 | 0.00 | 45 | 1023.1 |
| 20260502160155 | 15 | 63 | 3.2 | 9.7 | 0.00 | 0.00 | 0.00 | 46 | 1023.1 |
| 20260502152109 | 13 | 112 | 0.0 | 6.4 | 0.00 | 0.00 | 0.00 | 51 | 1023.1 |
| 20260502151606 | 13 | 122 | 0.0 | 3.2 | 0.00 | 0.00 | 0.00 | 61 | 1023.0 |
| 20260502151103 | 13 | 116 | 1.6 | 4.8 | 0.00 | 0.00 | 0.00 | 52 | 1023.2 |
| 20260502150601 | 12 | 80 | 3.2 | 11.3 | 0.00 | 0.00 | 0.00 | 56 | 1022.9 |
| 20260502130446 | 7 | 83 | 0.0 | 1.6 | 0.00 | 0.00 | 0.00 | 67 | 1022.6 |
| 20260502123428 | 6 | 112 | 0.0 | 3.2 | 0.00 | 0.00 | 0.00 | 69 | 1022.2 |
| 20260502122925 | 5 | 111 | 0.0 | 0.0 | 0.00 | 0.00 | 0.00 | 72 | 1022.0 |
| 20260502122421 | 5 | 119 | 0.0 | 0.0 | 0.00 | 0.00 | 0.00 | 71 | 1022.1 |
| 20260502121920 | 5 | 122 | 0.0 | 1.6 | 0.00 | 0.00 | 0.00 | 74 | 1022.2 |
| 20260502121416 | 4 | 80 | 0.0 | 0.0 | 0.00 | 0.00 | 0.00 | 75 | 1022.1 |
| 20260502120914 | 4 | 125 | 0.0 | 3.2 | 0.00 | 0.00 | 0.00 | 76 | 1021.9 |
| 20260502120410 | 3 | 145 | 0.0 | 0.0 | 0.00 | 0.00 | 0.00 | 77 | 1022.0 |
| 20260502115908 | 3 | 121 | 0.0 | 0.0 | 0.00 | 0.00 | 0.00 | 78 | 1021.7 |
| 20260502115405 | 3 | 120 | 0.0 | 0.0 | 0.00 | 0.00 | 0.00 | 79 | 1021.9 |
| 20260502114900 | 2 | 106 | 0.0 | 0.0 | 0.00 | 0.00 | 0.00 | 80 | 1021.6 |
| 20260502114358 | 2 | 121 | 0.0 | 0.0 | 0.00 | 0.00 | 0.00 | 83 | 1021.6 |
| 20260502113855 | 1 | 128 | 0.0 | 0.0 | 0.00 | 0.00 | 0.00 | 88 | 1021.6 |
| 20260502113352 | 1 | 118 | 0.0 | 0.0 | 0.00 | 0.00 | 0.00 | 90 | 1021.6 |
| 20260502112850 | 1 | 117 | 0.0 | 0.0 | 0.00 | 0.00 | 0.00 | 91 | 1021.3 |
| 20260502112348 | 1 | 117 | 0.0 | 0.0 | 0.00 | 0.00 | 0.00 | 91 | 1021.4 |
| 20260502111845 | 1 | 117 | 0.0 | 0.0 | 0.00 | 0.00 | 0.00 | 91 | 1021.4 |
| 20260502111342 | 1 | 117 | 0.0 | 0.0 | 0.00 | 0.00 | 0.00 | 91 | 1021.4 |
| 20260502110840 | 1 | 117 | 0.0 | 0.0 | 0.00 | 0.00 | 0.00 | 91 | 1021.3 |
| 20260502110338 | 1 | 117 | 0.0 | 0.0 | 0.00 | 0.00 | 0.00 | 90 | 1021.3 |
| 20260502105835 | 1 | 117 | 0.0 | 0.0 | 0.00 | 0.00 | 0.00 | 91 | 1021.2 |
| 20260502105332 | 1 | 117 | 0.0 | 0.0 | 0.00 | 0.00 | 0.00 | 91 | 1021.3 |
| 20260502104829 | 1 | 117 | 0.0 | 0.0 | 0.00 | 0.00 | 0.00 | 90 | 1021.2 |
| 20260502104327 | 1 | 117 | 0.0 | 0.0 | 0.00 | 0.00 | 0.00 | 89 | 1021.2 |
| 20260502103823 | 1 | 118 | 0.0 | 0.0 | 0.00 | 0.00 | 0.00 | 89 | 1021.3 |
| 20260502103321 | 1 | 117 | 0.0 | 0.0 | 0.00 | 0.00 | 0.00 | 88 | 1021.0 |
| 20260502102818 | 1 | 118 | 0.0 | 0.0 | 0.00 | 0.00 | 0.00 | 87 | 1021.2 |
| 20260502102314 | 2 | 118 | 0.0 | 0.0 | 0.00 | 0.00 | 0.00 | 86 | 1021.1 |
| 20260502101812 | 2 | 118 | 0.0 | 0.0 | 0.00 | 0.00 | 0.00 | 86 | 1021.0 |
| 20260502101310 | 2 | 118 | 0.0 | 0.0 | 0.00 | 0.00 | 0.00 | 85 | 1021.0 |
| 20260502100808 | 2 | 118 | 0.0 | 0.0 | 0.00 | 0.00 | 0.00 | 84 | 1021.0 |
| 20260502100307 | 2 | 118 | 0.0 | 0.0 | 0.00 | 0.00 | 0.00 | 83 | 1021.0 |
| 20260502091241 | 3 | 119 | 0.0 | 0.0 | 0.00 | 0.00 | 0.00 | 75 | 1020.8 |
| 20260502090738 | 3 | 118 | 0.0 | 0.0 | 0.00 | 0.00 | 0.00 | 74 | 1020.7 |
| 20260502090234 | 4 | 118 | 0.0 | 0.0 | 0.00 | 0.00 | 0.00 | 74 | 1020.7 |
| 20260502071136 | 5 | 118 | 0.0 | 0.0 | 0.00 | 0.00 | 0.00 | 69 | 1020.5 |
| 20260502070634 | 5 | 118 | 0.0 | 0.0 | 0.00 | 0.00 | 0.00 | 71 | 1020.7 |
| 20260502070131 | 5 | 118 | 0.0 | 0.0 | 0.00 | 0.00 | 0.00 | 71 | 1020.6 |
| 20260502065629 | 5 | 123 | 0.0 | 0.0 | 0.00 | 0.00 | 0.00 | 71 | 1020.6 |
| 20260502065126 | 5 | 123 | 0.0 | 0.0 | 0.00 | 0.00 | 0.00 | 71 | 1020.6 |
| 20260502064626 | 5 | 123 | 0.0 | 0.0 | 0.00 | 0.00 | 0.00 | 70 | 1020.8 |
| 20260502064122 | 5 | 123 | 0.0 | 0.0 | 0.00 | 0.00 | 0.00 | 69 | 1020.8 |
| 20260502063620 | 5 | 118 | 0.0 | 0.0 | 0.00 | 0.00 | 0.00 | 68 | 1020.7 |
| 20260502063117 | 6 | 118 | 0.0 | 0.0 | 0.00 | 0.00 | 0.00 | 68 | 1020.8 |
| 20260502062614 | 6 | 119 | 0.0 | 0.0 | 0.00 | 0.00 | 0.00 | 65 | 1020.7 |
| 20260502062112 | 6 | 118 | 0.0 | 0.0 | 0.00 | 0.00 | 0.00 | 64 | 1020.8 |
| 20260502061610 | 7 | 121 | 0.0 | 0.0 | 0.00 | 0.00 | 0.00 | 64 | 1020.7 |
| 20260502061107 | 7 | 104 | 0.0 | 0.0 | 0.00 | 0.00 | 0.00 | 62 | 1020.8 |
| 20260502060607 | 7 | 113 | 0.0 | 0.0 | 0.00 | 0.00 | 0.00 | 62 | 1020.8 |
| 20260502060104 | 7 | 114 | 0.0 | 0.0 | 0.00 | 0.00 | 0.00 | 61 | 1020.9 |
| 20260502055602 | 7 | 108 | 0.0 | 0.0 | 0.00 | 0.00 | 0.00 | 63 | 1020.9 |
| 20260502055100 | 7 | 118 | 0.0 | 0.0 | 0.00 | 0.00 | 0.00 | 65 | 1020.6 |
| 20260502054559 | 6 | 111 | 0.0 | 0.0 | 0.00 | 0.00 | 0.00 | 65 | 1020.8 |
| 20260502054055 | 6 | 105 | 0.0 | 0.0 | 0.00 | 0.00 | 0.00 | 67 | 1020.8 |
| 20260502053552 | 6 | 121 | 0.0 | 0.0 | 0.00 | 0.00 | 0.00 | 67 | 1020.8 |
| 20260502053050 | 6 | 120 | 0.0 | 0.0 | 0.00 | 0.00 | 0.00 | 66 | 1020.7 |
| 20260502052548 | 6 | 121 | 0.0 | 0.0 | 0.00 | 0.00 | 0.00 | 66 | 1020.8 |
| 20260502052046 | 7 | 121 | 0.0 | 0.0 | 0.00 | 0.00 | 0.00 | 65 | 1020.8 |
| 20260502051544 | 7 | 124 | 0.0 | 0.0 | 0.00 | 0.00 | 0.00 | 66 | 1020.6 |
| 20260502051041 | 7 | 121 | 0.0 | 0.0 | 0.00 | 0.00 | 0.00 | 66 | 1020.6 |
| 20260502050537 | 7 | 121 | 0.0 | 0.0 | 0.00 | 0.00 | 0.00 | 66 | 1020.6 |
| 20260502050034 | 7 | 121 | 0.0 | 0.0 | 0.00 | 0.00 | 0.00 | 66 | 1020.5 |
| 20260502045531 | 7 | 110 | 0.0 | 0.0 | 0.00 | 0.00 | 0.00 | 65 | 1020.6 |
| 20260502045028 | 7 | 120 | 0.0 | 0.0 | 0.00 | 0.00 | 0.00 | 68 | 1020.7 |
| 20260502044525 | 7 | 120 | 0.0 | 0.0 | 0.00 | 0.00 | 0.00 | 67 | 1020.7 |
| 20260502044021 | 7 | 122 | 0.0 | 0.0 | 0.00 | 0.00 | 0.00 | 66 | 1020.5 |
| 20260502043519 | 7 | 123 | 0.0 | 0.0 | 0.00 | 0.00 | 0.00 | 67 | 1020.5 |
| 20260502043015 | 7 | 119 | 0.0 | 0.0 | 0.00 | 0.00 | 0.00 | 69 | 1020.5 |
| 20260502042510 | 6 | 118 | 0.0 | 0.0 | 0.00 | 0.00 | 0.00 | 72 | 1020.5 |
| 20260502042008 | 7 | 118 | 0.0 | 0.0 | 0.00 | 0.00 | 0.00 | 72 | 1020.4 |
| 20260502041506 | 7 | 118 | 0.0 | 0.0 | 0.00 | 0.00 | 0.00 | 71 | 1020.3 |
| 20260502041002 | 7 | 118 | 0.0 | 0.0 | 0.00 | 0.00 | 0.00 | 72 | 1020.4 |
| 20260502040459 | 7 | 118 | 0.0 | 0.0 | 0.00 | 0.00 | 0.00 | 71 | 1020.3 |
| 20260502035955 | 7 | 118 | 0.0 | 0.0 | 0.00 | 0.00 | 0.00 | 70 | 1020.4 |
| 20260502035451 | 7 | 118 | 0.0 | 0.0 | 0.00 | 0.00 | 0.00 | 69 | 1020.2 |
| 20260502034949 | 8 | 118 | 0.0 | 0.0 | 0.00 | 0.00 | 0.00 | 68 | 1020.3 |
| 20260502034448 | 8 | 118 | 0.0 | 0.0 | 0.00 | 0.00 | 0.00 | 66 | 1020.2 |
| 20260502033946 | 8 | 117 | 0.0 | 0.0 | 0.00 | 0.00 | 0.00 | 68 | 1020.2 |
| 20260502033443 | 7 | 121 | 0.0 | 0.0 | 0.00 | 0.00 | 0.00 | 69 | 1020.2 |
| 20260502032939 | 7 | 119 | 0.0 | 0.0 | 0.00 | 0.00 | 0.00 | 71 | 1020.2 |
| 20260502032436 | 7 | 119 | 0.0 | 0.0 | 0.00 | 0.00 | 0.00 | 72 | 1020.2 |
| 20260502031933 | 8 | 119 | 0.0 | 0.0 | 0.00 | 0.00 | 0.00 | 70 | 1020.1 |
| 20260502031432 | 8 | 119 | 0.0 | 0.0 | 0.00 | 0.00 | 0.00 | 70 | 1020.2 |
| 20260502030929 | 8 | 119 | 0.0 | 0.0 | 0.00 | 0.00 | 0.00 | 69 | 1019.9 |
| 20260502030427 | 8 | 119 | 0.0 | 0.0 | 0.00 | 0.00 | 0.00 | 69 | 1019.9 |
| 20260502025925 | 8 | 119 | 0.0 | 0.0 | 0.00 | 0.00 | 0.00 | 67 | 1019.8 |
| 20260502025422 | 8 | 119 | 0.0 | 0.0 | 0.00 | 0.00 | 0.00 | 66 | 1019.7 |
| 20260502024919 | 9 | 119 | 0.0 | 0.0 | 0.00 | 0.00 | 0.00 | 67 | 1019.6 |
| 20260502024418 | 9 | 119 | 0.0 | 0.0 | 0.00 | 0.00 | 0.00 | 64 | 1019.4 |
| 20260502023915 | 10 | 119 | 0.0 | 0.0 | 0.00 | 0.00 | 0.00 | 62 | 1019.6 |
| 20260502023413 | 10 | 119 | 0.0 | 0.0 | 0.00 | 0.00 | 0.00 | 61 | 1019.3 |
| 20260502022910 | 10 | 119 | 0.0 | 0.0 | 0.00 | 0.00 | 0.00 | 61 | 1019.3 |
| 20260502022406 | 10 | 119 | 0.0 | 0.0 | 0.00 | 0.00 | 0.00 | 60 | 1019.3 |
| 20260502021903 | 10 | 119 | 0.0 | 0.0 | 0.00 | 0.00 | 0.00 | 58 | 1019.2 |
| 20260502021400 | 11 | 115 | 0.0 | 0.0 | 0.00 | 0.00 | 0.00 | 57 | 1019.1 |
| 20260502020858 | 11 | 115 | 0.0 | 0.0 | 0.00 | 0.00 | 0.00 | 55 | 1019.0 |
| 20260502020355 | 11 | 111 | 0.0 | 0.0 | 0.00 | 0.00 | 0.00 | 54 | 1018.8 |
| 20260502015852 | 12 | 112 | 0.0 | 0.0 | 0.00 | 0.00 | 0.00 | 52 | 1018.9 |
| 20260502015349 | 12 | 108 | 0.0 | 0.0 | 0.00 | 0.00 | 0.00 | 51 | 1018.9 |
| 20260502014847 | 12 | 122 | 0.0 | 0.0 | 0.00 | 0.00 | 0.00 | 51 | 1018.8 |
| 20260502014343 | 12 | 98 | 0.0 | 0.0 | 0.00 | 0.00 | 0.00 | 51 | 1018.7 |
| 20260502013839 | 12 | 107 | 0.0 | 0.0 | 0.00 | 0.00 | 0.00 | 51 | 1018.7 |
| 20260502013335 | 12 | 127 | 0.0 | 0.0 | 0.00 | 0.00 | 0.00 | 50 | 1018.6 |
| 20260502012832 | 12 | 115 | 0.0 | 0.0 | 0.00 | 0.00 | 0.00 | 49 | 1018.4 |
| 20260502012330 | 13 | 112 | 0.0 | 0.0 | 0.00 | 0.00 | 0.00 | 47 | 1018.4 |
| 20260502011827 | 13 | 101 | 0.0 | 1.6 | 0.00 | 0.00 | 0.00 | 45 | 1018.3 |
| 20260502011323 | 13 | 120 | 0.0 | 0.0 | 0.00 | 0.00 | 0.00 | 45 | 1018.1 |
| 20260502010820 | 14 | 111 | 0.0 | 1.6 | 0.00 | 0.00 | 0.00 | 44 | 1018.0 |
| 20260502010317 | 14 | 110 | 0.0 | 6.4 | 0.00 | 0.00 | 0.00 | 43 | 1018.1 |
| 20260502005814 | 15 | 123 | 0.0 | 1.6 | 0.00 | 0.00 | 0.00 | 41 | 1017.9 |
| 20260502005312 | 15 | 165 | 0.0 | 1.6 | 0.00 | 0.00 | 0.00 | 42 | 1017.9 |
| 20260502004809 | 15 | 110 | 0.0 | 0.0 | 0.00 | 0.00 | 0.00 | 41 | 1017.9 |
| 20260502004304 | 15 | 115 | 0.0 | 1.6 | 0.00 | 0.00 | 0.00 | 40 | 1017.7 |
| 20260502003803 | 15 | 196 | 1.6 | 3.2 | 0.00 | 0.00 | 0.00 | 39 | 1017.8 |
| 20260502003259 | 15 | 138 | 1.6 | 11.3 | 0.00 | 0.00 | 0.00 | 39 | 1017.6 |
| 20260502002755 | 16 | 35 | 0.0 | 1.6 | 0.00 | 0.00 | 0.00 | 40 | 1017.7 |
| 20260502002253 | 16 | 89 | 1.6 | 3.2 | 0.00 | 0.00 | 0.00 | 37 | 1017.7 |
| 20260502001750 | 16 | 162 | 1.6 | 3.2 | 0.00 | 0.00 | 0.00 | 37 | 1017.6 |
| 20260502001248 | 17 | 123 | 3.2 | 6.4 | 0.00 | 0.00 | 0.00 | 36 | 1017.4 |
| 20260502000745 | 17 | 35 | 1.6 | 6.4 | 0.00 | 0.00 | 0.00 | 36 | 1017.2 |
| 20260502000244 | 17 | 188 | 1.6 | 9.7 | 0.00 | 0.00 | 0.00 | 35 | 1017.5 |
| 20260501235738 | 16 | 264 | 4.8 | 9.7 | 0.00 | 0.00 | 0.00 | 37 | 1017.6 |
| 20260501235234 | 17 | 22 | 1.6 | 4.8 | 0.00 | 0.00 | 0.00 | 37 | 1017.3 |
| 20260501234730 | 16 | 337 | 1.6 | 6.4 | 0.00 | 0.00 | 0.00 | 37 | 1017.4 |
| 20260501234228 | 16 | 36 | 0.0 | 4.8 | 0.00 | 0.00 | 0.00 | 39 | 1017.4 |
| 20260501233726 | 17 | 29 | 1.6 | 11.3 | 0.00 | 0.00 | 0.00 | 37 | 1017.5 |
| 20260501233223 | 17 | 51 | 0.0 | 9.7 | 0.00 | 0.00 | 0.00 | 35 | 1017.4 |
| 20260501232718 | 17 | 132 | 0.0 | 4.8 | 0.00 | 0.00 | 0.00 | 38 | 1017.5 |
| 20260501232216 | 17 | 336 | 6.4 | 6.4 | 0.00 | 0.00 | 0.00 | 35 | 1017.4 |
| 20260501231713 | 17 | 292 | 8.0 | 11.3 | 0.00 | 0.00 | 0.00 | 34 | 1017.4 |
| 20260501231211 | 18 | 227 | 4.8 | 9.7 | 0.00 | 0.00 | 0.00 | 33 | 1017.5 |
| 20260501230710 | 18 | 249 | 4.8 | 4.8 | 0.00 | 0.00 | 0.00 | 35 | 1017.4 |
| 20260501230208 | 18 | 338 | 1.6 | 6.4 | 0.00 | 0.00 | 0.00 | 35 | 1017.3 |
| 20260501225705 | 18 | 73 | 1.6 | 9.7 | 0.00 | 0.00 | 0.00 | 36 | 1017.3 |
| 20260501225202 | 18 | 145 | 0.0 | 3.2 | 0.00 | 0.00 | 0.00 | 38 | 1017.4 |
| 20260501224658 | 18 | 85 | 1.6 | 3.2 | 0.00 | 0.00 | 0.00 | 35 | 1017.4 |
| 20260501224155 | 18 | 116 | 1.6 | 4.8 | 0.00 | 0.00 | 0.00 | 39 | 1017.4 |
| 20260501223652 | 18 | 91 | 1.6 | 6.4 | 0.00 | 0.00 | 0.00 | 35 | 1017.4 |
| 20260501223148 | 18 | 283 | 9.7 | 12.9 | 0.00 | 0.00 | 0.00 | 34 | 1017.3 |
| 20260501222644 | 18 | 261 | 6.4 | 11.3 | 0.00 | 0.00 | 0.00 | 36 | 1017.4 |
| 20260501222142 | 18 | 86 | 3.2 | 3.2 | 0.00 | 0.00 | 0.00 | 37 | 1017.5 |
| 20260501221638 | 18 | 45 | 1.6 | 4.8 | 0.00 | 0.00 | 0.00 | 35 | 1017.6 |
| 20260501221137 | 18 | 157 | 3.2 | 6.4 | 0.00 | 0.00 | 0.00 | 40 | 1017.6 |
| 20260501220633 | 18 | 265 | 3.2 | 9.7 | 0.00 | 0.00 | 0.00 | 39 | 1017.6 |
| 20260501220130 | 18 | 24 | 3.2 | 9.7 | 0.00 | 0.00 | 0.00 | 37 | 1017.7 |
| 20260501215627 | 18 | 359 | 3.2 | 6.4 | 0.00 | 0.00 | 0.00 | 36 | 1017.7 |
| 20260501215122 | 17 | 245 | 0.0 | 6.4 | 0.00 | 0.00 | 0.00 | 39 | 1017.6 |
| 20260501214617 | 17 | 163 | 1.6 | 9.7 | 0.00 | 0.00 | 0.00 | 37 | 1017.8 |
| 20260501214113 | 17 | 22 | 3.2 | 9.7 | 0.00 | 0.00 | 0.00 | 38 | 1017.6 |
| 20260501213610 | 17 | 313 | 12.9 | 17.7 | 0.00 | 0.00 | 0.00 | 37 | 1017.9 |
| 20260501213106 | 17 | 313 | 1.6 | 4.8 | 0.00 | 0.00 | 0.00 | 40 | 1018.0 |
| 20260501212603 | 17 | 119 | 1.6 | 9.7 | 0.00 | 0.00 | 0.00 | 40 | 1017.8 |
| 20260501212100 | 17 | 77 | 0.0 | 4.8 | 0.00 | 0.00 | 0.00 | 39 | 1018.1 |
| 20260501211556 | 17 | 91 | 0.0 | 9.7 | 0.00 | 0.00 | 0.00 | 42 | 1018.1 |
| 20260501211055 | 17 | 55 | 3.2 | 6.4 | 0.00 | 0.00 | 0.00 | 39 | 1018.2 |
| 20260501210550 | 17 | 30 | 3.2 | 4.8 | 0.00 | 0.00 | 0.00 | 39 | 1018.2 |
| 20260501210047 | 17 | 58 | 0.0 | 9.7 | 0.00 | 0.00 | 0.00 | 43 | 1018.3 |
| 20260501205544 | 17 | 196 | 4.8 | 12.9 | 0.00 | 0.00 | 0.00 | 38 | 1018.6 |
| 20260501205042 | 17 | 258 | 6.4 | 11.3 | 0.00 | 0.00 | 0.00 | 38 | 1018.7 |
| 20260501204538 | 18 | 255 | 3.2 | 4.8 | 0.00 | 0.00 | 0.00 | 40 | 1018.6 |
| 20260501204034 | 18 | 141 | 0.0 | 4.8 | 0.00 | 0.00 | 0.00 | 41 | 1018.7 |
| 20260501203530 | 17 | 294 | 1.6 | 6.4 | 0.00 | 0.00 | 0.00 | 40 | 1018.8 |
| 20260501203028 | 17 | 278 | 4.8 | 6.4 | 0.00 | 0.00 | 0.00 | 39 | 1019.0 |
| 20260501202525 | 17 | 248 | 1.6 | 4.8 | 0.00 | 0.00 | 0.00 | 39 | 1018.8 |
| 20260501202021 | 17 | 277 | 1.6 | 6.4 | 0.00 | 0.00 | 0.00 | 40 | 1018.9 |
| 20260501201519 | 17 | 318 | 1.6 | 4.8 | 0.00 | 0.00 | 0.00 | 36 | 1019.2 |
| 20260501201015 | 17 | 81 | 0.0 | 3.2 | 0.00 | 0.00 | 0.00 | 43 | 1019.0 |
| 20260501200512 | 16 | 120 | 3.2 | 6.4 | 0.00 | 0.00 | 0.00 | 41 | 1019.2 |
| 20260501200010 | 16 | 165 | 0.0 | 4.8 | 0.00 | 0.00 | 0.00 | 40 | 1019.2 |
| 20260501195507 | 16 | 120 | 0.0 | 4.8 | 0.00 | 0.00 | 0.00 | 38 | 1019.4 |
| 20260501195002 | 16 | 268 | 1.6 | 6.4 | 0.00 | 0.00 | 0.00 | 37 | 1019.4 |
| 20260501194458 | 17 | 106 | 1.6 | 9.7 | 0.00 | 0.00 | 0.00 | 41 | 1019.4 |
| 20260501193954 | 17 | 216 | 1.6 | 4.8 | 0.00 | 0.00 | 0.00 | 42 | 1019.4 |
| 20260501193452 | 16 | 117 | 0.0 | 6.4 | 0.00 | 0.00 | 0.00 | 40 | 1019.4 |
| 20260501192950 | 16 | 163 | 1.6 | 1.6 | 0.00 | 0.00 | 0.00 | 40 | 1019.5 |
| 20260501192447 | 17 | 221 | 3.2 | 4.8 | 0.00 | 0.00 | 0.00 | 38 | 1019.5 |
| 20260501191944 | 17 | 178 | 6.4 | 9.7 | 0.00 | 0.00 | 0.00 | 37 | 1019.6 |
| 20260501191441 | 17 | 303 | 4.8 | 12.9 | 0.00 | 0.00 | 0.00 | 38 | 1019.6 |
| 20260501190938 | 18 | 111 | 1.6 | 4.8 | 0.00 | 0.00 | 0.00 | 35 | 1019.6 |
| 20260501190434 | 18 | 74 | 1.6 | 3.2 | 0.00 | 0.00 | 0.00 | 35 | 1019.3 |
| 20260501185929 | 18 | 271 | 4.8 | 6.4 | 0.00 | 0.00 | 0.00 | 36 | 1019.6 |
| 20260501185425 | 17 | 57 | 3.2 | 3.2 | 0.00 | 0.00 | 0.00 | 39 | 1019.5 |
| 20260501184921 | 16 | 137 | 0.0 | 6.4 | 0.00 | 0.00 | 0.00 | 38 | 1019.6 |
| 20260501184418 | 17 | 273 | 6.4 | 12.9 | 0.00 | 0.00 | 0.00 | 39 | 1019.7 |
| 20260501183913 | 17 | 121 | 3.2 | 4.8 | 0.00 | 0.00 | 0.00 | 43 | 1019.7 |
| 20260501183410 | 17 | 39 | 6.4 | 11.3 | 0.00 | 0.00 | 0.00 | 36 | 1019.7 |
| 20260501182906 | 18 | 145 | 1.6 | 6.4 | 0.00 | 0.00 | 0.00 | 40 | 1019.9 |
| 20260501182403 | 18 | 255 | 3.2 | 4.8 | 0.00 | 0.00 | 0.00 | 38 | 1019.8 |
| 20260501181900 | 17 | 274 | 6.4 | 11.3 | 0.00 | 0.00 | 0.00 | 38 | 1019.9 |
| 20260501181357 | 17 | 79 | 0.0 | 6.4 | 0.00 | 0.00 | 0.00 | 41 | 1019.8 |
| 20260501180855 | 17 | 224 | 3.2 | 6.4 | 0.00 | 0.00 | 0.00 | 37 | 1019.8 |
| 20260501180351 | 17 | 47 | 1.6 | 14.5 | 0.00 | 0.00 | 0.00 | 37 | 1019.8 |
| 20260501175848 | 17 | 184 | 3.2 | 4.8 | 0.00 | 0.00 | 0.00 | 38 | 1019.8 |
| 20260501175344 | 17 | 339 | 9.7 | 11.3 | 0.00 | 0.00 | 0.00 | 38 | 1019.8 |
| 20260501174841 | 17 | 118 | 0.0 | 6.4 | 0.00 | 0.00 | 0.00 | 44 | 1019.7 |
| 20260501174339 | 17 | 199 | 3.2 | 6.4 | 0.00 | 0.00 | 0.00 | 45 | 1019.8 |
| 20260501173837 | 17 | 101 | 1.6 | 4.8 | 0.00 | 0.00 | 0.00 | 41 | 1020.1 |
| 20260501173334 | 17 | 115 | 3.2 | 6.4 | 0.00 | 0.00 | 0.00 | 45 | 1020.1 |
| 20260501172829 | 17 | 98 | 0.0 | 3.2 | 0.00 | 0.00 | 0.00 | 41 | 1020.0 |
| 20260501172325 | 17 | 164 | 3.2 | 6.4 | 0.00 | 0.00 | 0.00 | 46 | 1020.1 |
| 20260501171820 | 16 | 64 | 1.6 | 11.3 | 0.00 | 0.00 | 0.00 | 45 | 1020.3 |
| 20260501171318 | 16 | 147 | 3.2 | 9.7 | 0.00 | 0.00 | 0.00 | 43 | 1020.1 |
| 20260501170814 | 17 | 215 | 4.8 | 9.7 | 0.00 | 0.00 | 0.00 | 38 | 1020.2 |
| 20260501170311 | 17 | 188 | 3.2 | 4.8 | 0.00 | 0.00 | 0.00 | 42 | 1020.3 |
| 20260501165808 | 17 | 325 | 3.2 | 3.2 | 0.00 | 0.00 | 0.00 | 38 | 1020.2 |
| 20260501165306 | 16 | 136 | 1.6 | 3.2 | 0.00 | 0.00 | 0.00 | 47 | 1020.3 |
| 20260501164804 | 16 | 120 | 1.6 | 6.4 | 0.00 | 0.00 | 0.00 | 43 | 1020.3 |
| 20260501164301 | 16 | 55 | 0.0 | 4.8 | 0.00 | 0.00 | 0.00 | 42 | 1020.4 |
| 20260501163756 | 16 | 249 | 8.0 | 12.9 | 0.00 | 0.00 | 0.00 | 41 | 1020.2 |
| 20260501163254 | 16 | 155 | 3.2 | 6.4 | 0.00 | 0.00 | 0.00 | 48 | 1020.2 |
| 20260501162750 | 16 | 190 | 1.6 | 9.7 | 0.00 | 0.00 | 0.00 | 40 | 1019.9 |
| 20260501162247 | 15 | 172 | 0.0 | 3.2 | 0.00 | 0.00 | 0.00 | 43 | 1020.2 |